| time (UTC) | temp F | wind direction | speed MPH | gust MPH | rain 1hr in | rain 24hr in | rain mn in | humidity % | barometer mb |
| 20260504213100 | 76 | 32 | 7.0 | 16.0 | 0.00 | 0.01 | 0.01 | 51 | 1007.6 |
| 20260504211554 | 76 | 18 | 6.0 | 14.0 | 0.00 | 0.01 | 0.01 | 54 | 1007.6 |
| 20260504210048 | 75 | 309 | 4.0 | 9.0 | 0.00 | 0.01 | 0.01 | 56 | 1008.0 |
| 20260504204516 | 74 | 296 | 5.0 | 12.0 | 0.00 | 0.01 | 0.01 | 55 | 1008.2 |
| 20260504203013 | 74 | 23 | 6.0 | 18.0 | 0.00 | 0.01 | 0.01 | 54 | 1008.2 |
| 20260504201508 | 73 | 9 | 8.0 | 16.0 | 0.00 | 0.01 | 0.01 | 53 | 1008.4 |
| 20260504200005 | 72 | 55 | 10.0 | 22.0 | 0.00 | 0.01 | 0.01 | 54 | 1008.6 |
| 20260504194503 | 71 | 39 | 6.0 | 12.0 | 0.01 | 0.01 | 0.01 | 58 | 1008.7 |
| 20260504193002 | 69 | 22 | 6.0 | 11.0 | 0.01 | 0.01 | 0.01 | 64 | 1008.9 |
| 20260504191546 | 68 | 15 | 10.0 | 18.0 | 0.01 | 0.01 | 0.01 | 66 | 1009.0 |
| 20260504190031 | 66 | 55 | 5.0 | 9.0 | 0.01 | 0.01 | 0.01 | 70 | 1009.4 |
| 20260504184614 | 67 | 11 | 7.0 | 15.0 | 0.00 | 0.00 | 0.00 | 65 | 1009.5 |
| 20260504183107 | 71 | 52 | 10.0 | 15.0 | 0.00 | 0.00 | 0.00 | 57 | 1010.3 |
| 20260504181554 | 72 | 104 | 8.0 | 12.0 | 0.00 | 0.00 | 0.00 | 54 | 1009.7 |
| 20260504180052 | 71 | 55 | 5.0 | 15.0 | 0.00 | 0.00 | 0.00 | 55 | 1009.5 |
| 20260504174550 | 71 | 69 | 8.0 | 15.0 | 0.00 | 0.00 | 0.00 | 56 | 1009.3 |
| 20260504173049 | 69 | 33 | 5.0 | 20.0 | 0.00 | 0.00 | 0.00 | 60 | 1009.4 |
| 20260504171544 | 69 | 315 | 11.0 | 19.0 | 0.00 | 0.00 | 0.00 | 59 | 1009.4 |
| 20260504081506 | 44 | 201 | 0.0 | 5.0 | 0.00 | 0.00 | 0.00 | 90 | 1012.7 |
| 20260504050005 | 48 | 217 | 0.0 | 4.0 | 0.00 | 0.00 | 0.00 | 89 | 1014.1 |
| 20260504044510 | 48 | 217 | 1.0 | 5.0 | 0.00 | 0.00 | 0.00 | 87 | 1014.3 |
| 20260504043032 | 48 | 217 | 0.0 | 2.0 | 0.00 | 0.00 | 0.00 | 86 | 1014.4 |
| 20260504041530 | 48 | 216 | 0.0 | 4.0 | 0.00 | 0.00 | 0.00 | 85 | 1014.3 |
| 20260504040026 | 49 | 215 | 0.0 | 2.0 | 0.00 | 0.00 | 0.00 | 83 | 1014.6 |
| 20260504034534 | 49 | 216 | 2.0 | 4.0 | 0.00 | 0.00 | 0.00 | 81 | 1014.5 |
| 20260504033023 | 49 | 202 | 2.0 | 5.0 | 0.00 | 0.00 | 0.00 | 76 | 1014.3 |
| 20260504031523 | 49 | 217 | 2.0 | 7.0 | 0.00 | 0.00 | 0.00 | 75 | 1014.5 |
| 20260504030037 | 49 | 222 | 0.0 | 2.0 | 0.00 | 0.00 | 0.00 | 74 | 1014.5 |
| 20260504024520 | 50 | 222 | 0.0 | 3.0 | 0.00 | 0.00 | 0.00 | 74 | 1014.4 |
| 20260504023025 | 50 | 222 | 0.0 | 0.0 | 0.00 | 0.00 | 0.00 | 72 | 1014.4 |
| 20260504021518 | 50 | 222 | 0.0 | 0.0 | 0.00 | 0.00 | 0.00 | 70 | 1014.1 |
| 20260504020015 | 50 | 221 | 1.0 | 5.0 | 0.00 | 0.00 | 0.00 | 70 | 1013.9 |
| 20260504014532 | 50 | 218 | 1.0 | 4.0 | 0.00 | 0.00 | 0.00 | 69 | 1013.9 |
| 20260504013014 | 51 | 217 | 0.0 | 4.0 | 0.00 | 0.00 | 0.00 | 65 | 1013.8 |
| 20260504011515 | 51 | 218 | 0.0 | 4.0 | 0.00 | 0.00 | 0.00 | 66 | 1013.8 |
| 20260504010015 | 53 | 198 | 2.0 | 4.0 | 0.00 | 0.00 | 0.00 | 62 | 1013.9 |
| 20260504004512 | 54 | 119 | 1.0 | 4.0 | 0.00 | 0.00 | 0.00 | 59 | 1013.9 |
| 20260504003023 | 55 | 115 | 1.0 | 4.0 | 0.00 | 0.00 | 0.00 | 55 | 1013.8 |
| 20260504001510 | 57 | 101 | 2.0 | 5.0 | 0.00 | 0.00 | 0.00 | 51 | 1013.8 |
| 20260504000006 | 60 | 41 | 0.0 | 0.0 | 0.00 | 0.00 | 0.00 | 41 | 1013.9 |
| 20260503234515 | 61 | 41 | 0.0 | 2.0 | 0.00 | 0.00 | 0.00 | 39 | 1013.7 |
| 20260503233004 | 61 | 41 | 3.0 | 6.0 | 0.00 | 0.00 | 0.00 | 38 | 1013.8 |
| 20260503231503 | 61 | 44 | 3.0 | 7.0 | 0.00 | 0.00 | 0.00 | 38 | 1014.1 |
| 20260503230103 | 62 | 44 | 4.0 | 7.0 | 0.00 | 0.00 | 0.00 | 36 | 1014.2 |
| 20260503224558 | 62 | 14 | 5.0 | 9.0 | 0.00 | 0.00 | 0.00 | 35 | 1014.1 |
| 20260503223100 | 63 | 17 | 3.0 | 8.0 | 0.00 | 0.00 | 0.00 | 36 | 1014.4 |
| 20260503221557 | 63 | 67 | 6.0 | 12.0 | 0.00 | 0.00 | 0.00 | 35 | 1014.4 |
| 20260503220054 | 63 | 35 | 5.0 | 10.0 | 0.00 | 0.00 | 0.00 | 35 | 1014.4 |
| 20260503214552 | 64 | 17 | 7.0 | 13.0 | 0.00 | 0.00 | 0.00 | 34 | 1014.6 |